STARLINK-36889, 68006

Orbit data source: Space-Track

STARLINK-36889, 68006 is a payload satellite owned by SpaceX/Seattle (US) in LEO that was launched on Fri, 27 Feb 2026 UTC via an FALCON 9 launch vehicle from the Air Force Eastern Test Range (AFETR). Payload-class satellites include a variety of spacecraft equipped with specific instruments for various scientific and technological missions. These include communications satellites like Starlink; space stations such as the ISS; scientific satellites like the Hubble; Earth observation satellites from companies like Planet Labs, Umbra, and HawkEye 360; GPS; miniature CubeSats for education and research; and military/defense satellites.

Loading next visibility...
Identifier
68006, 2026-039W
Orbit
LEO
Country
Flag of USUS
Related business
Manufacturer
SpaceX/Seattle
Mission
Operational Commercial Communications
Bus & Motor
STARLINK V2MO, Unknown motor
Mass
575 kg wet, ~530 kg dry
Launch date (UTC)
2026-02-27 (4 months ago)
Launch vehicle
FALCON 9
Launch site
Air Force Eastern Test Range (AFETR)
Object type
Payload
Rocket body
Debris
Shape & HBR
Box + 2 Pan, 17.7 m
Radar Cross Section
36.964 m², Large (>1 m²)

Expand to show TLE details & history
Last TLE update: 12 hours ago

TLE from 12 hours ago
0 STARLINK-36889
1 68006U 26039W   26171.35638713  .00009450  00000-0  35238-3 0  9995
2 68006  43.0006 189.2370 0001569 275.8849  84.1824 15.27588199 17403
Epoch: 2026-06-20T08:33Z
TLE epoch observation values (Epoch: 2026-06-20T08:33:11.848Z)
Latitude
0.00002°
Longitude
152.36547°
Altitude
482.691 km
Speed
7.626 km/s
True Right ascension
12h 36m 56s
True Declination
0° 00' 00"
Sunlit
Object was in daylight at epoch
Visualization orbit readout
Latitude
Unknown
Longitude
Unknown
Altitude
Unknown
Speed
Unknown
Apparent Right ascension
Unknown
Apparent Declination
Unknown
Sunlit
N/A
Visualization observer readout
Local Sidereal Time
07:19:47
Azimuth
Unknown
Elevation
Unknown
Doppler factor
Unknown
Orbital elements
Apogee altitude
486.046 km
Perigee altitude
483.893 km
Semi-major axis
6,863.107 km
Eccentricity
0.00016
Inclination
43.0006°
RAAN
189.237°
Arg. of periapsis
275.8849°
True anomaly
84.20029°
Mean anomaly
84.1824°
Eccentric anomaly
84.19134°
Mean motion
3.81735 °/min
Orbital period
94.31 mins
BSTAR
0.00035238
Loading maneuver chart data...
Computing Atmospheric mass density...
Loading historical data...
Loading historical data...
Loading historical data...
Loading historical data...
Loading historical data...
Loading historical data...
Loading historical data...

Documentation

Showing up to 5 results
|